Location: Ferchesar
(52.6477°N, 12.4298°E)
Time: 04:05:43
(UTC+01:00)

Vanguard 1 - Pass Details

Date: 09 December 2021
Orbit: 652 x 3830 km, 34.2° (Epoch: 21 January)

Event Time Altitude Azimuth Distance (km) Brightness Sun altitude
Rises 22:52:37 0° 228° (SW) 6,673 14.3 -57.4°
Enters shadow 22:55:27 - 224° (SW) 6,230 14.0 -57.6°
Exits shadow 23:36:05 - 100° (E) 6,769 14.2 -59.8°
Sets 23:40:08 0° 95° (E) 7,382 14.5 -59.9°
